Home   Weather   Strasbourg   Past weeks
Flag for France

Past Weather in Strasbourg, Grand-Est, France — Yesterday and Last 2 Weeks

Now
54 °F

Clear.


Feels Like: 53 °F
Forecast: 71 / 45 °F
Wind: 3 mph from Southwest

Location: Strasbourg Airport

Current Time: May 22, 2019 at 11:43:12 pm

Latest Report: May 22, 2019 at 11:00 pm


Visibility: 10 mi

Pressure: 30.12 "Hg

Humidity: 82%

Dew Point: 48 °F

Location of StrasbourgLocation

Past Weather in Strasbourg — Graph

°F

Strasbourg Temperature Yesterday

Maximum temperature yesterday: 59 °F (at 5:30 pm)
Minimum temperature yesterday: 55 °F (at 3:30 am)
Average temperature yesterday: 56 °F

High & Low Weather Summary for the Past Weeks

 TemperatureHumidityPressure
High72 °F (May 18, 3:30 pm)100% (May 8, 5:00 pm)30.54 "Hg (May 8, 5:00 pm)
Low41 °F (May 15, 5:00 am)25% (May 14, 6:00 pm)29.50 "Hg (May 9, 11:00 am)
Average56 °F69%29.95 "Hg
* Reported May 7 10:00 pm — May 22 10:00 pm, Strasbourg. Weather by CustomWeather, © 2019

Note: Actual official high and low records may vary slightly from our data, if they occured in-between our weather recording intervals... More about our weather records

Advertising

Strasbourg Weather History for the Previous 24 Hours

Scroll right to see more
 ConditionsComfort  
Time TempWeatherWind HumidityBarometerVisibility
10:00 pm
Wed, May 22
57 °FClear.2 mph72%30.12 "Hg10 mi
9:30 pm59 °FClear.3 mph59%30.09 "Hg10 mi
9:00 pm63 °FSunny.2 mph56%30.09 "Hg10 mi
8:30 pm66 °FSunny.3 mph43%30.09 "Hg10 mi
8:00 pm66 °FSunny.7 mph40%30.09 "Hg10 mi
7:30 pm68 °FSunny.8 mph40%30.09 "Hg10 mi
7:00 pm68 °FSunny.10 mph40%30.09 "Hg10 mi
6:30 pm68 °FPassing clouds.9 mph43%30.09 "HgN/A
6:00 pm68 °FPassing clouds.10 mph46%30.09 "HgN/A
5:30 pm68 °FSunny.12 mph46%30.09 "Hg10 mi
5:00 pm68 °FPassing clouds.12 mph46%30.09 "HgN/A
4:30 pm68 °FPassing clouds.10 mph49%30.09 "HgN/A
4:00 pm68 °FPassing clouds.10 mph46%30.09 "HgN/A
3:30 pm68 °FPassing clouds.12 mph43%30.09 "HgN/A
3:00 pm66 °FPassing clouds.12 mph49%30.09 "HgN/A
2:30 pm66 °FPassing clouds.9 mph49%30.09 "HgN/A
2:00 pm66 °FPassing clouds.12 mph56%30.09 "HgN/A
1:30 pm66 °FPassing clouds.9 mph52%30.09 "HgN/A
1:00 pm63 °FBroken clouds.6 mph59%30.09 "HgN/A
12:30 pm63 °FPartly sunny.6 mph64%30.12 "HgN/A
12:00 pm64 °FBroken clouds.6 mph60%30.12 "HgN/A
11:30 am61 °FPartly sunny.2 mph63%30.09 "HgN/A
11:00 am61 °FBroken clouds.2 mph68%30.12 "HgN/A
10:30 am59 °FPassing clouds.3 mph72%30.09 "HgN/A
10:00 am59 °FPassing clouds.2 mph68%30.09 "HgN/A
9:30 am57 °FPassing clouds.2 mph72%30.12 "HgN/A
9:00 am55 °FPassing clouds.2 mph82%30.12 "HgN/A
8:30 am55 °FPassing clouds.2 mph82%30.09 "HgN/A
8:00 am54 °FScattered clouds.No wind88%30.09 "HgN/A
7:30 am52 °FScattered clouds.3 mph94%30.09 "Hg2 mi
7:00 am50 °FSunny.2 mph94%30.09 "Hg10 mi
6:30 am46 °FSunny.3 mph100%30.07 "Hg10 mi
6:00 am46 °FSunny.3 mph100%30.07 "Hg10 mi
5:30 am46 °FClear.5 mph93%30.07 "Hg10 mi
5:00 am48 °FClear.3 mph94%30.07 "Hg10 mi
4:30 am48 °FClear.3 mph94%30.07 "Hg10 mi
4:00 am50 °FPassing clouds.3 mph94%30.07 "HgN/A
3:30 am52 °FFog.3 mph100%30.07 "Hg2 mi
3:00 am52 °FFog.5 mph94%30.07 "Hg3 mi
2:30 am52 °FClear.3 mph100%30.07 "Hg4 mi
2:00 am54 °FClear.5 mph94%30.07 "Hg4 mi
1:30 am54 °FClear.3 mph94%30.07 "Hg5 mi
1:00 am54 °FOvercast.3 mph100%30.07 "Hg4 mi
12:30 am54 °FLight rain. Passing clouds.1 mph100%30.07 "Hg4 mi
12:00 am54 °FLight rain. Partly cloudy.2 mph94%30.07 "Hg5 mi
11:30 pm
Tue, May 21
55 °FLight rain. Passing clouds.3 mph88%30.07 "Hg6 mi
11:00 pm55 °FLight rain. Overcast.2 mph88%30.04 "HgN/A
Weather by CustomWeather, © 2019

See weather overview